Hourly Data Report for October 01, 2017

All times are specified in Local Standard Time (LST). Add 1 hour to adjust for Daylight Saving Time where and when it is observed.

TRACADIE
NOVA SCOTIA

45°36'30.080" N
61°40'47.020" W
66.70 m
8205895
71308
XTD

Download Data

Hourly Data (October 2017)
Hourly Data Report for October 1, 2017
Temp Definition
°C
Dew Point Temp Definition
°C
Rel Hum Definition
%
Wind Dir Definition
10's deg

Wind Spd Definition
km/h
Visibility Definition
km
Stn Press Definition
kPa
Hmdx Definition


Wind Chill Definition


Weather Definition


TIME
00:00 6.1 3.6 84 23 11   101.60     LegendNANA
01:00 5.9 3.3 84 22 11   101.60     LegendNANA
02:00 5.8 3.3 84 22 12   101.58     LegendNANA
03:00 6.1 3.3 83 23 11   101.57     LegendNANA
04:00 5.9 3.3 84 22 13   101.56     LegendNANA
05:00 6.6 3.6 81 21 15   101.53     LegendNANA
06:00 6.1 3.5 83 21 12   101.51     LegendNANA
07:00 7.1 4.2 82 21 13   101.51     LegendNANA
08:00 9.3 5.8 79 22 17   101.51     LegendNANA
09:00 11.7 6.8 72 25 16   101.50     LegendNANA
10:00 14.0 7.6 66 23 18   101.46     LegendNANA
11:00 15.0 7.8 62 22 19   101.40     LegendNANA
12:00 16.1 6.6 53 22 17   101.29     LegendNANA
13:00 17.3 4.9 44 22 18   101.19     LegendNANA
14:00 18.8 7.7 49 22 19   101.12     LegendNANA
15:00 18.0 5.7 44 22 20   101.03     LegendNANA
16:00 15.8 5.7 51 22 21   100.99     LegendNANA
17:00 14.8 5.1 52 23 16   101.01     LegendNANA
18:00 12.2 5.1 62 23 12   101.03     LegendNANA
19:00 10.9 5.5 69 20 13   101.08     LegendNANA
20:00 10.4 5.6 72 21 13   101.14     LegendNANA
21:00 11.1 4.2 63 23 16   101.15     LegendNANA
22:00 10.2 4.1 66 23 16   101.12     LegendNANA
23:00 9.7 4.6 71 25 11   101.08     LegendNANA

Notes on Data Quality.

Legend

  • E = Estimated
  • M = Missing
  • NA = Not Available
  • ‡ = Partner data that is not subject to review by the National Climate Archives
Date modified: